Charlottetown, Prince Edward Island

6:58 PM AST on February 19, 2017 (GMT -0400)
Charlottetown

Weather History for 71706 - December, 2013

Change the Weather History Date:

Friday, December 13, 2013

  Actual Average Record
Temperature  
Mean Temperature 7 °F -  
Max Temperature 16 °F 29 °F - ()
Min Temperature -2 °F 14 °F - ()
Degree Days  
Heating Degree Days 58    
Moisture  
Dew Point 2 °F    
Average Humidity 77    
Maximum Humidity 93    
Minimum Humidity 61    
Precipitation  
Precipitation 0.04 in 0.16 in - ()
Sea Level Pressure  
Sea Level Pressure 29.90 in    
Wind  
Wind Speed 7 mph ()    
Max Wind Speed 16 mph    
Max Gust Speed 24 mph    
Visibility 11.8 miles    
Events Snow    
T = Trace of Precipitation, MM = Missing Value Source: Averaged Metar Reports

Daily Weather History Graph

Daily Weather History Graph

Search for Another Location

Airport or City:

Trip Planner

Search our weather history database for the weather conditions in past years. The results will help you decide how hot, cold, wet, or windy it might be!

Date:

Astronomy

Dec. 13, 2013 Rise Set
Actual Time 7:47 AM AST 4:26 PM AST
Civil Twilight 7:12 AM AST 5:01 PM AST
Nautical Twilight 6:34 AM AST 5:39 PM AST
Astronomical Twilight 5:57 AM AST 6:15 PM AST
Moon 2:14 PM AST (12/13) 3:56 AM AST (12/13)
Length of Visible Light 9h 48m
Length of Day
8h 38m
Waxing Gibbous, 87% of the Moon is Illuminated
Dec 13
Waxing Gibbous
Dec 17
Full
Dec 25
Last Quarter
Jan 1
New
Jan 7
First Quarter

Hourly Weather History & Observations

Time (AST) Temp. Windchill Dew Point Humidity Pressure Visibility Wind Dir Wind Speed Gust Speed Precip Events Conditions
12:00 AM 1.4 °F -11.3 °F -5.8 °F 72% 29.99 in 15.0 mi West 6.9 mph - N/A   Partly Cloudy
1:00 AM 1.4 °F -9.9 °F -5.8 °F 72% 29.98 in 15.0 mi West 5.8 mph - N/A   Partly Cloudy
2:00 AM 1 °F - -5 °F 63% 29.97 in 15 mi West 6.9 mph - -   Scattered Clouds
2:00 AM 1.4 °F -11.3 °F -5.8 °F 72% 29.96 in 15.0 mi West 6.9 mph - N/A   Partly Cloudy
3:00 AM -0.4 °F -10.4 °F -5.8 °F 78% 29.96 in 15.0 mi WSW 4.6 mph - N/A   Scattered Clouds
4:00 AM 1.4 °F -9.9 °F -4.0 °F 78% 29.95 in 15.0 mi West 5.8 mph - N/A   Partly Cloudy
5:00 AM 1.4 °F -9.9 °F -5.8 °F 72% 29.94 in 15.0 mi WSW 5.8 mph - N/A   Partly Cloudy
6:00 AM 3.2 °F -6.2 °F -5.8 °F 66% 29.92 in 15.0 mi WSW 4.6 mph - N/A   Partly Cloudy
7:00 AM 1.4 °F -6.2 °F -4.0 °F 78% 29.90 in 15.0 mi South 3.5 mph - N/A   Mostly Cloudy
7:51 AM 3.2 °F - -2.2 °F 78% 29.89 in 15.0 mi SSE 2.3 mph - N/A Snow Light Snow Showers
8:00 AM 4 °F - -1 °F 71% 29.89 in 15 mi South 3.5 mph - - Snow Light Snow Showers
8:00 AM 3.2 °F -6.2 °F -0.4 °F 85% 29.89 in 15.0 mi South 4.6 mph - N/A Snow Light Snow Showers
9:00 AM 8.6 °F -4.7 °F 5.0 °F 85% 29.88 in 5.0 mi SSW 9.2 mph - N/A Snow Light Snow Showers
10:00 AM 12.2 °F -2.5 °F 6.8 °F 79% 29.88 in 4.0 mi SSW 12.7 mph - N/A Snow Light Snow
10:40 AM 12.2 °F -1.8 °F 8.6 °F 85% 29.86 in 2.0 mi South 11.5 mph - N/A Snow Light Snow
11:00 AM 14.0 °F 0.5 °F 8.6 °F 79% 29.85 in 2.0 mi South 11.5 mph - N/A Snow Light Snow
11:37 AM 14.0 °F -0.2 °F 8.6 °F 79% 29.83 in 15.0 mi SSW 12.7 mph - N/A Snow Light Snow
12:00 PM 15.8 °F 2.7 °F 8.6 °F 73% 29.80 in 15.0 mi SSW 11.5 mph - N/A Snow Light Snow
12:50 PM 15.8 °F 2.1 °F 8.6 °F 73% 29.78 in 3.0 mi SSW 12.7 mph - N/A Snow Light Snow
1:00 PM 15.8 °F 1.4 °F 10.4 °F 79% 29.77 in 2.0 mi SSW 13.8 mph - N/A Snow Light Snow
1:46 PM 15.8 °F 5.1 °F 14.0 °F 93% 29.76 in 0.8 mi SW 8.1 mph - N/A Snow Light Snow
2:00 PM 16 °F - 13 °F 84% 29.76 in 5 mi Calm Calm - - Snow Light Snow
2:00 PM 15.8 °F 6.1 °F 14.0 °F 93% 29.76 in 5.0 mi WSW 6.9 mph - N/A Snow Light Snow
3:00 PM 15.8 °F 2.7 °F 8.6 °F 73% 29.78 in 10.0 mi West 11.5 mph 17.3 mph N/A Snow Light Snow
3:52 PM 12.2 °F -0.2 °F 6.8 °F 79% 29.83 in 15.0 mi WNW 9.2 mph - N/A   Scattered Clouds
4:00 PM 12.2 °F 0.7 °F 6.8 °F 79% 29.83 in 15.0 mi WNW 8.1 mph - N/A Snow Low Drifting Snow
5:00 PM 10.4 °F -4.1 °F 6.8 °F 85% 29.88 in 15.0 mi West 11.5 mph - N/A Snow Light Snow
6:00 PM 8.6 °F -7.7 °F 5.0 °F 85% 29.91 in 15.0 mi West 13.8 mph 20.7 mph N/A Snow Light Snow
7:00 PM 8.6 °F -6.3 °F 3.2 °F 79% 29.96 in 15.0 mi West 11.5 mph 18.4 mph N/A Snow Light Snow
7:57 PM 6.8 °F -9.3 °F 1.4 °F 79% 30.00 in 15.0 mi West 12.7 mph - N/A Snow Low Drifting Snow
8:00 PM 7 °F - 1 °F 66% 30.00 in 15 mi West 12.7 mph - - Snow Low Drifting Snow
8:00 PM 6.8 °F -8.6 °F 1.4 °F 79% 30.00 in 15.0 mi West 11.5 mph 18.4 mph N/A Snow Low Drifting Snow
9:00 PM 8.6 °F -8.9 °F -2.2 °F 62% 30.03 in 15.0 mi WNW 16.1 mph 24.2 mph N/A Snow Low Drifting Snow
10:00 PM 6.8 °F -10.0 °F -4.0 °F 61% 30.06 in 15.0 mi WNW 13.8 mph 20.7 mph N/A Snow Low Drifting Snow
11:00 PM 3.2 °F -13.9 °F -5.8 °F 66% 30.09 in 15.0 mi WNW 12.7 mph 21.9 mph N/A Snow Low Drifting Snow